EDW320 LSZH-ENTC

Flight info

Callsign EDW320
Flight time N/A
Altitude 36000
Route DEGES Z1 ETAGO DCT HAREM/N0453F350 DCT LOHRE DCT ELNAT/N0454F360 P605 SAS DCT PIZID/N0449F350 DCT ALASA/N0449F360 DCT NIROD/N0452F350 DCT SOMUB Z101 GUBAV DCT PENNO DCT ATWEG
Aircraft A320/M-SDE3FGHIRWY/LB1

Departure

Time 2026-05-07 13:24
Airport Zürich Airport (LSZH)

Arrival

Time N/A
Airport Tromsø Airport (ENTC)
Time Latitude Longitude Altitude Speed Heading
2026-05-07 12:41 47.46071 8.55300 1402 ft 0 kts
2026-05-07 13:14 47.46048 8.55296 1398 ft 4 kts
2026-05-07 13:14 47.46022 8.55288 1404 ft 4 kts 17°
2026-05-07 13:15 47.45997 8.55273 1401 ft 4 kts 37°
2026-05-07 13:15 47.45983 8.55248 1406 ft 3 kts 94°
2026-05-07 13:15 47.45984 8.55238 1402 ft 0 kts 96°
2026-05-07 13:18 47.45984 8.55240 1403 ft 1 kts 96°
2026-05-07 13:18 47.45983 8.55258 1406 ft 2 kts 96°
2026-05-07 13:18 47.45982 8.55271 1404 ft 2 kts 97°
2026-05-07 13:19 47.45979 8.55301 1402 ft 5 kts 97°
2026-05-07 13:19 47.45974 8.55371 1398 ft 9 kts 95°
2026-05-07 13:19 47.45966 8.55483 1403 ft 13 kts 96°
2026-05-07 13:19 47.45915 8.55558 1405 ft 10 kts 179°
2026-05-07 13:20 47.45866 8.55627 1412 ft 12 kts 96°
2026-05-07 13:20 47.45856 8.55772 1408 ft 16 kts 96°
2026-05-07 13:20 47.45844 8.55942 1410 ft 15 kts 96°
2026-05-07 13:20 47.45832 8.56110 1414 ft 18 kts 95°
2026-05-07 13:21 47.45819 8.56295 1417 ft 19 kts 96°
2026-05-07 13:21 47.45804 8.56498 1420 ft 21 kts 96°
2026-05-07 13:21 47.45790 8.56705 1425 ft 18 kts 96°
2026-05-07 13:21 47.45776 8.56894 1422 ft 18 kts 96°
2026-05-07 13:22 47.45745 8.57023 1425 ft 10 kts 142°
2026-05-07 13:22 47.45693 8.57033 1425 ft 14 kts 194°
2026-05-07 13:22 47.45669 8.56910 1423 ft 15 kts 274°
2026-05-07 13:22 47.45671 8.56874 1422 ft 0 kts 276°
2026-05-07 13:23 47.45693 8.56580 1418 ft 67 kts 276°
2026-05-07 13:23 47.45799 8.55111 1397 ft 147 kts 276°
2026-05-07 13:23 47.45879 8.54004 1519 ft 166 kts 278°
2026-05-07 13:24 47.46000 8.52332 2279 ft 164 kts 277°
2026-05-07 13:24 47.46117 8.50626 2984 ft 170 kts 276°
2026-05-07 13:24 47.46235 8.48799 3363 ft 190 kts 273°
2026-05-07 13:24 47.45894 8.46846 3594 ft 211 kts 234°
2026-05-07 13:25 47.44833 8.45289 4196 ft 217 kts 224°
2026-05-07 13:25 47.43860 8.43614 4870 ft 218 kts 245°
2026-05-07 13:25 47.43337 8.41492 5630 ft 218 kts 254°
2026-05-07 13:25 47.42868 8.39357 6146 ft 231 kts 244°
2026-05-07 13:26 47.41777 8.37495 6451 ft 256 kts 212°
2026-05-07 13:26 47.40009 8.36840 7030 ft 273 kts 176°
2026-05-07 13:26 47.38217 8.37817 7737 ft 283 kts 143°
2026-05-07 13:26 47.37032 8.40153 8482 ft 292 kts 110°
2026-05-07 13:27 47.36846 8.43135 9283 ft 299 kts 82°
2026-05-07 13:27 47.37388 8.46099 10075 ft 304 kts 69°
2026-05-07 13:27 47.38242 8.49047 10389 ft 323 kts 65°
2026-05-07 13:27 47.39235 8.52154 10575 ft 347 kts 65°
2026-05-07 13:28 47.40264 8.55499 10795 ft 367 kts 66°
2026-05-07 13:28 47.41250 8.59019 11337 ft 374 kts 69°
2026-05-07 13:28 47.42176 8.62628 12010 ft 378 kts 70°
2026-05-07 13:28 47.43059 8.66302 12687 ft 382 kts 71°
2026-05-07 13:29 47.43919 8.70028 13369 ft 386 kts 71°
2026-05-07 13:29 47.44776 8.73803 14037 ft 389 kts 72°
2026-05-07 13:29 47.45619 8.77610 14629 ft 391 kts 75°
2026-05-07 13:29 47.46115 8.81565 15199 ft 394 kts 85°
2026-05-07 13:30 47.46120 8.85589 15742 ft 396 kts 96°
2026-05-07 13:30 47.45652 8.89606 16285 ft 399 kts 103°
2026-05-07 13:30 47.45061 8.93630 16850 ft 402 kts 103°
2026-05-07 13:30 47.44479 8.97681 17426 ft 405 kts 102°
2026-05-07 13:31 47.43898 9.01768 17976 ft 408 kts 102°
2026-05-07 13:31 47.43311 9.05895 18499 ft 411 kts 102°
2026-05-07 13:31 47.42718 9.10042 18978 ft 414 kts 102°
2026-05-07 13:31 47.42245 9.14249 19449 ft 417 kts 95°
2026-05-07 13:32 47.42260 9.18537 19908 ft 420 kts 84°
2026-05-07 13:32 47.42793 9.22737 20302 ft 424 kts 73°
2026-05-07 13:32 47.43853 9.26801 20767 ft 425 kts 62°
2026-05-07 13:32 47.45299 9.30611 21236 ft 426 kts 59°
2026-05-07 13:33 47.46875 9.34325 21670 ft 428 kts 52°
2026-05-07 13:33 47.48837 9.37632 22070 ft 429 kts 41°
2026-05-07 13:33 47.51159 9.40398 22470 ft 429 kts 32°
2026-05-07 13:33 47.53760 9.42543 22872 ft 429 kts 22°
2026-05-07 13:34 47.56571 9.44061 23259 ft 429 kts 14°
2026-05-07 13:34 47.62464 9.45336 23954 ft 430 kts 360°
2026-05-07 13:34 47.65454 9.45493 24283 ft 431 kts
2026-05-07 13:35 47.68471 9.45653 24610 ft 433 kts
2026-05-07 13:35 47.71484 9.45815 24933 ft 434 kts
2026-05-07 13:35 47.74510 9.45979 25247 ft 436 kts
2026-05-07 13:35 47.77541 9.46145 25549 ft 437 kts
2026-05-07 13:36 47.80595 9.46308 25856 ft 439 kts 360°
2026-05-07 13:36 47.83650 9.46393 26168 ft 440 kts 359°
2026-05-07 13:36 47.86717 9.46395 26464 ft 441 kts 358°
2026-05-07 13:36 47.89786 9.46352 26745 ft 442 kts 358°
2026-05-07 13:37 47.92833 9.46296 27007 ft 444 kts 358°
2026-05-07 13:37 47.95966 9.46247 27271 ft 445 kts 358°
2026-05-07 13:37 47.99034 9.46218 27526 ft 447 kts 358°
2026-05-07 13:37 48.02145 9.46204 27775 ft 448 kts 358°
2026-05-07 13:38 48.05268 9.46200 28020 ft 449 kts 358°
2026-05-07 13:38 48.08394 9.46203 28284 ft 450 kts 358°
2026-05-07 13:38 48.11530 9.46206 28513 ft 451 kts 358°
2026-05-07 13:38 48.14665 9.46204 28746 ft 451 kts 358°
2026-05-07 13:39 48.17801 9.46198 29047 ft 450 kts 358°
2026-05-07 13:39 48.20930 9.46193 29347 ft 449 kts 358°
2026-05-07 13:39 48.24071 9.46193 29651 ft 449 kts 358°
2026-05-07 13:39 48.27195 9.46199 29959 ft 448 kts 358°
2026-05-07 13:40 48.30312 9.46204 30153 ft 450 kts 358°
2026-05-07 13:40 48.33454 9.46205 30354 ft 451 kts 358°
2026-05-07 13:40 48.36550 9.46206 30566 ft 451 kts 358°
2026-05-07 13:40 48.39626 9.46211 30791 ft 451 kts 358°
2026-05-07 13:41 48.42768 9.46216 31013 ft 451 kts 358°
2026-05-07 13:41 48.45893 9.46220 31233 ft 451 kts 358°
2026-05-07 13:41 48.49047 9.46222 31464 ft 451 kts 358°
2026-05-07 13:41 48.52192 9.46226 31693 ft 451 kts 358°
2026-05-07 13:42 48.55328 9.46224 31922 ft 451 kts 358°
2026-05-07 13:42 48.58179 9.46203 32128 ft 451 kts 358°
2026-05-07 13:42 48.61326 9.46161 32372 ft 451 kts 357°
2026-05-07 13:42 48.64459 9.46111 32608 ft 451 kts 357°
2026-05-07 13:43 48.67559 9.46065 32836 ft 451 kts 357°
2026-05-07 13:43 48.70734 9.46025 33070 ft 450 kts 357°
2026-05-07 13:43 48.73866 9.45981 33286 ft 450 kts 357°
2026-05-07 13:43 48.77004 9.45881 33501 ft 450 kts 356°
2026-05-07 13:44 48.80130 9.45723 33728 ft 450 kts 355°
2026-05-07 13:44 48.83262 9.45531 33956 ft 450 kts 355°
2026-05-07 13:44 48.86385 9.45336 34160 ft 450 kts 355°
2026-05-07 13:44 48.89474 9.45151 34342 ft 450 kts 355°
2026-05-07 13:45 48.92610 9.44981 34532 ft 451 kts 356°
2026-05-07 13:45 48.95758 9.44825 34698 ft 451 kts 356°
2026-05-07 13:45 48.98895 9.44672 34873 ft 451 kts 356°
2026-05-07 13:45 49.02035 9.44516 35034 ft 452 kts 356°
2026-05-07 13:46 49.05178 9.44363 35183 ft 452 kts 356°
2026-05-07 13:46 49.08325 9.44208 35343 ft 452 kts 356°
2026-05-07 13:46 49.11471 9.44052 35488 ft 453 kts 356°
2026-05-07 13:46 49.14614 9.43894 35638 ft 453 kts 356°
2026-05-07 13:47 49.17770 9.43731 35784 ft 453 kts 356°
2026-05-07 13:47 49.20923 9.43568 35943 ft 453 kts 356°
2026-05-07 13:47 49.24080 9.43405 36024 ft 455 kts 356°
2026-05-07 13:48 49.30424 9.43069 36036 ft 456 kts 356°
2026-05-07 13:48 49.36767 9.42732 36043 ft 456 kts 356°
2026-05-07 13:49 49.43111 9.42405 36038 ft 456 kts 356°
2026-05-07 13:49 49.49444 9.42079 36038 ft 455 kts 356°
2026-05-07 13:50 49.55720 9.41757 36039 ft 454 kts 356°
2026-05-07 13:50 49.62081 9.41542 36040 ft 455 kts
2026-05-07 13:51 49.68313 9.42482 36037 ft 456 kts
2026-05-07 13:51 49.74620 9.43486 36037 ft 456 kts
2026-05-07 13:52 49.80896 9.44478 36038 ft 456 kts
2026-05-07 13:52 49.87214 9.45487 36043 ft 456 kts
2026-05-07 13:53 49.93534 9.46515 36044 ft 457 kts
2026-05-07 13:53 49.99861 9.47540 36045 ft 457 kts
2026-05-07 13:54 50.06186 9.48555 36049 ft 457 kts
2026-05-07 13:54 50.12504 9.49614 36048 ft 457 kts
2026-05-07 13:55 50.18824 9.50752 36047 ft 457 kts
2026-05-07 13:55 50.25149 9.51898 36047 ft 457 kts
2026-05-07 13:56 50.31472 9.53020 36050 ft 457 kts
2026-05-07 13:56 50.37798 9.54133 36048 ft 457 kts
2026-05-07 13:57 50.44080 9.55249 36045 ft 457 kts
2026-05-07 13:57 50.50398 9.56383 36047 ft 457 kts
2026-05-07 13:58 50.56722 9.57520 36052 ft 457 kts
2026-05-07 13:58 50.63045 9.58658 36057 ft 457 kts
2026-05-07 13:59 50.69371 9.59792 36058 ft 457 kts
2026-05-07 13:59 50.75696 9.60929 36057 ft 457 kts
2026-05-07 14:00 50.82015 9.62073 36061 ft 457 kts
2026-05-07 14:00 50.88340 9.63227 36062 ft 457 kts
2026-05-07 14:01 50.94667 9.64372 36060 ft 457 kts
2026-05-07 14:01 51.00985 9.65520 36066 ft 457 kts
2026-05-07 14:02 51.07271 9.66677 36060 ft 457 kts
2026-05-07 14:02 51.13598 9.67842 36061 ft 458 kts
2026-05-07 14:03 51.19925 9.69010 36060 ft 457 kts
2026-05-07 14:03 51.26246 9.70109 36062 ft 457 kts
2026-05-07 14:04 51.32586 9.71096 36068 ft 458 kts
2026-05-07 14:04 51.38923 9.72081 36065 ft 457 kts
2026-05-07 14:05 51.45263 9.73103 36069 ft 458 kts
2026-05-07 14:05 51.51598 9.74205 36067 ft 458 kts
2026-05-07 14:06 51.57927 9.75432 36062 ft 458 kts
2026-05-07 14:06 51.64253 9.76661 36065 ft 458 kts
2026-05-07 14:07 51.70591 9.77873 36068 ft 458 kts
2026-05-07 14:07 51.76891 9.79073 36065 ft 459 kts
2026-05-07 14:08 51.83229 9.80279 36067 ft 459 kts
2026-05-07 14:08 51.89569 9.81495 36076 ft 459 kts
2026-05-07 14:09 51.95912 9.82729 36073 ft 459 kts
2026-05-07 14:09 52.02259 9.83967 36073 ft 459 kts
2026-05-07 14:10 52.08600 9.85194 36085 ft 459 kts
2026-05-07 14:10 52.14943 9.86420 36094 ft 459 kts
2026-05-07 14:11 52.21239 9.87656 36097 ft 458 kts
2026-05-07 14:11 52.27572 9.88196 36100 ft 456 kts 356°
2026-05-07 14:12 52.33900 9.87609 36097 ft 456 kts 356°
2026-05-07 14:12 52.40243 9.87033 36100 ft 456 kts 356°
2026-05-07 14:13 52.45542 9.86550 36094 ft 455 kts 356°
2026-05-07 14:13 52.51877 9.85979 36096 ft 455 kts 356°
2026-05-07 14:14 52.58159 9.85401 36095 ft 455 kts 356°
2026-05-07 14:14 52.64482 9.84820 36099 ft 455 kts 356°
2026-05-07 14:15 52.70805 9.84232 36096 ft 455 kts 356°
2026-05-07 14:15 52.77128 9.83632 36094 ft 455 kts 355°
2026-05-07 14:16 52.83448 9.83047 36091 ft 455 kts 356°
2026-05-07 14:16 52.89773 9.82458 36091 ft 455 kts 356°
2026-05-07 14:17 52.96094 9.81871 36088 ft 455 kts 355°
2026-05-07 14:17 53.02408 9.81287 36090 ft 455 kts 356°
2026-05-07 14:18 53.08732 9.80689 36079 ft 455 kts 356°
2026-05-07 14:18 53.15060 9.80085 36082 ft 455 kts 355°
2026-05-07 14:19 53.21376 9.79479 36079 ft 455 kts 355°
2026-05-07 14:19 53.27657 9.78882 36083 ft 455 kts 356°
2026-05-07 14:20 53.33987 9.78294 36083 ft 455 kts 355°
2026-05-07 14:20 53.40304 9.77688 36080 ft 455 kts 355°
2026-05-07 14:21 53.46517 9.77074 36095 ft 455 kts 356°
2026-05-07 14:21 53.52840 9.76458 36090 ft 455 kts 355°
2026-05-07 14:22 53.59160 9.75861 36091 ft 455 kts 355°
2026-05-07 14:22 53.65483 9.75250 36087 ft 455 kts 356°
2026-05-07 14:23 53.71810 9.74638 36088 ft 455 kts 355°
2026-05-07 14:23 53.78130 9.74024 36088 ft 455 kts 355°
2026-05-07 14:24 53.84458 9.73399 36086 ft 455 kts 356°
2026-05-07 14:24 53.90787 9.72775 36093 ft 455 kts 356°
2026-05-07 14:25 53.97115 9.72159 36097 ft 455 kts 355°
2026-05-07 14:25 54.03401 9.71542 36094 ft 455 kts 356°
2026-05-07 14:26 54.09723 9.70921 36090 ft 455 kts 356°
2026-05-07 14:26 54.16044 9.70297 36100 ft 454 kts 356°
2026-05-07 14:27 54.22356 9.69673 36097 ft 454 kts 356°
2026-05-07 14:27 54.28654 9.69045 36098 ft 454 kts 356°
2026-05-07 14:28 54.34956 9.68404 36096 ft 453 kts 356°
2026-05-07 14:28 54.41254 9.67772 36125 ft 453 kts 356°
2026-05-07 14:29 54.47546 9.67186 36134 ft 452 kts
2026-05-07 14:29 54.53682 9.68797 36131 ft 450 kts 19°
2026-05-07 14:30 54.59297 9.73611 36119 ft 449 kts 31°
2026-05-07 14:30 54.64617 9.79148 36116 ft 450 kts 31°
2026-05-07 14:31 54.69972 9.84740 36123 ft 450 kts 31°
2026-05-07 14:31 54.75357 9.90383 36123 ft 450 kts 31°
2026-05-07 14:32 54.81074 9.94656 36123 ft 448 kts 13°
2026-05-07 14:32 54.87209 9.95563 36142 ft 447 kts 356°
2026-05-07 14:33 54.93421 9.94940 36145 ft 447 kts 356°
2026-05-07 14:33 54.99638 9.94334 36146 ft 447 kts 356°
2026-05-07 14:34 55.05849 9.93732 36143 ft 447 kts 356°
2026-05-07 14:34 55.12058 9.93126 36138 ft 447 kts 356°
2026-05-07 14:35 55.18273 9.92510 36139 ft 447 kts 356°
2026-05-07 14:35 55.24435 9.91903 36137 ft 446 kts 356°
2026-05-07 14:36 55.30630 9.91298 36130 ft 446 kts 356°
2026-05-07 14:36 55.36820 9.90691 36127 ft 445 kts 356°
2026-05-07 14:37 55.43003 9.90057 36130 ft 445 kts 356°
2026-05-07 14:37 55.52273 9.89123 36124 ft 445 kts 356°
2026-05-07 14:38 55.58457 9.88501 36123 ft 445 kts 356°
2026-05-07 14:38 55.64635 9.87878 36116 ft 445 kts 356°
2026-05-07 14:39 55.70813 9.87254 36114 ft 445 kts 356°
2026-05-07 14:39 55.76993 9.86630 36114 ft 445 kts 356°
2026-05-07 14:40 55.83172 9.86005 36114 ft 445 kts 356°
2026-05-07 14:40 55.89315 9.85368 36111 ft 445 kts 356°
2026-05-07 14:41 55.95490 9.84735 36124 ft 444 kts 355°
2026-05-07 14:41 56.01664 9.84102 36125 ft 444 kts 355°
2026-05-07 14:42 56.07849 9.83468 36120 ft 444 kts 355°
2026-05-07 14:42 56.14020 9.82839 36116 ft 444 kts 355°
2026-05-07 14:43 56.20141 9.82203 36122 ft 444 kts 355°
2026-05-07 14:43 56.26301 9.81556 36120 ft 443 kts 355°
2026-05-07 14:44 56.32466 9.80907 36122 ft 443 kts 355°
2026-05-07 14:44 56.38620 9.80261 36122 ft 443 kts 355°
2026-05-07 14:45 56.44770 9.79625 36115 ft 443 kts 355°
2026-05-07 14:45 56.50930 9.78982 36125 ft 443 kts 355°
2026-05-07 14:46 56.57083 9.78335 36120 ft 443 kts 355°
2026-05-07 14:46 56.63204 9.77681 36118 ft 443 kts 354°
2026-05-07 14:47 56.69358 9.77013 36119 ft 443 kts 355°
2026-05-07 14:47 56.75515 9.76359 36124 ft 443 kts 354°
2026-05-07 14:48 56.81667 9.75709 36121 ft 443 kts 354°
2026-05-07 14:48 56.87824 9.75051 36126 ft 443 kts 354°
2026-05-07 14:49 56.93980 9.74373 36125 ft 443 kts 354°
2026-05-07 14:49 57.00127 9.73702 36120 ft 443 kts 354°
2026-05-07 14:50 57.06281 9.73040 36130 ft 443 kts 354°
2026-05-07 14:50 57.12437 9.72367 36122 ft 443 kts 354°
2026-05-07 14:51 57.18590 9.71694 36130 ft 443 kts 354°
2026-05-07 14:51 57.24740 9.71016 36121 ft 443 kts 354°
2026-05-07 14:52 57.30887 9.70343 36144 ft 443 kts 353°
2026-05-07 14:52 57.36561 9.69711 36143 ft 443 kts 353°
2026-05-07 14:53 57.42719 9.69023 36136 ft 443 kts 353°
2026-05-07 14:53 57.48878 9.68342 36139 ft 443 kts 353°
2026-05-07 14:54 57.55036 9.67674 36136 ft 443 kts 353°
2026-05-07 14:54 57.61197 9.66990 36161 ft 443 kts 353°
2026-05-07 14:55 57.67351 9.66290 36155 ft 443 kts 353°
2026-05-07 14:55 57.73505 9.65595 36151 ft 443 kts 353°
2026-05-07 14:56 57.79654 9.64903 36148 ft 443 kts 353°